,,,PA_Meas_PMT16A,,PR_Meas_QMR101_102,,RH_Meas_QMH101,,SR_Meas_QMS101,,TA_Meas_QMH101,,GenWind,,GenWind,
date,time,status,PA,status,PR,status,RH,status,SR,status,TA,status,DirAvg,status,SpdAvg,
2008-07-23, 00:00:05,VALID,1010.04,VALID,0,VALID,96.4887,VALID,0,VALID,21.923,VALID,88,VALID,0.262891,
2008-07-23, 00:01:05,VALID,1010.03,VALID,0,VALID,96.4887,VALID,0,VALID,21.9018,VALID,88,VALID,0.226563,
2008-07-23, 00:02:05,VALID,1010.02,VALID,0,VALID,96.4963,VALID,0,VALID,21.9213,VALID,88,VALID,0.210547,
2008-07-23, 00:03:05,VALID,1010,VALID,0,VALID,96.4887,VALID,0,VALID,21.9213,VALID,24,VALID,0.367578,
2008-07-23, 00:04:05,VALID,1009.97,VALID,0,VALID,96.4963,VALID,0,VALID,21.9213,VALID,24,VALID,0.447266,
2008-07-23, 00:05:05,VALID,1009.96,VALID,0,VALID,96.4734,VALID,0,VALID,21.8824,VALID,24,VALID,0.525781,
2008-07-23, 00:06:05,VALID,1009.94,VALID,0,VALID,96.4582,VALID,0,VALID,21.8451,VALID,24,VALID,0.533203,
2008-07-23, 00:07:05,VALID,1009.93,VALID,0,VALID,96.481,VALID,0,VALID,21.8451,VALID,24,VALID,0.632813,
2008-07-23, 00:08:05,VALID,1009.94,VALID,0,VALID,96.4963,VALID,0,VALID,21.8451,VALID,11,VALID,0.368359,
2008-07-23, 00:09:05,VALID,1009.94,VALID,0,VALID,96.4963,VALID,0,VALID,21.8451,VALID,11,VALID,0.320313,
2008-07-23, 00:10:05,VALID,1009.94,VALID,0,VALID,96.481,VALID,0,VALID,21.8451,VALID,11,VALID,0.235938,
2008-07-23, 00:11:05,VALID,1009.93,VALID,0,VALID,96.4963,VALID,0,VALID,21.8045,VALID,11,VALID,0.2125,
2008-07-23, 00:12:05,VALID,1009.94,VALID,0,VALID,96.481,VALID,0,VALID,21.8256,VALID,11,VALID,0.204297,
2008-07-23, 00:13:05,VALID,1009.95,VALID,0,VALID,96.4887,VALID,0,VALID,21.7655,VALID,11,VALID,0.15,
2008-07-23, 00:14:05,VALID,1009.95,VALID,0,VALID,96.4963,VALID,0,VALID,21.8256,VALID,11,VALID,0.0976563,
2008-07-23, 00:15:05,VALID,1009.94,VALID,0,VALID,96.4887,VALID,0,VALID,21.785,VALID,11,VALID,0.117188,
2008-07-23, 00:16:05,VALID,1009.94,VALID,0,VALID,96.4963,VALID,0,VALID,21.7655,VALID,11,VALID,0.153906,
2008-07-23, 00:17:05,VALID,1009.94,VALID,0,VALID,96.5039,VALID,0,VALID,21.785,VALID,11,VALID,0.176563,
2008-07-23, 00:18:05,VALID,1009.94,VALID,0,VALID,96.4963,VALID,0,VALID,21.8045,VALID,11,VALID,0,
2008-07-23, 00:19:05,VALID,1009.94,VALID,0,VALID,96.5268,VALID,0,VALID,21.8239,VALID,11,VALID,0,
2008-07-23, 00:20:05,VALID,1009.93,VALID,0,VALID,96.5344,VALID,0,VALID,21.8434,VALID,11,VALID,0,
2008-07-23, 00:21:05,VALID,1009.91,VALID,0,VALID,96.5268,VALID,0,VALID,21.8629,VALID,11,VALID,0,
2008-07-23, 00:22:05,VALID,1009.88,VALID,0,VALID,96.5115,VALID,0,VALID,21.8629,VALID,11,VALID,0,
2008-07-23, 00:23:05,VALID,1009.86,VALID,0,VALID,96.5268,VALID,0,VALID,21.923,VALID,11,VALID,0,
2008-07-23, 00:24:05,VALID,1009.83,VALID,0,VALID,96.5039,VALID,0,VALID,21.8824,VALID,11,VALID,0,
2008-07-23, 00:25:05,VALID,1009.82,VALID,0,VALID,96.4887,VALID,0,VALID,21.8824,VALID,11,VALID,0,
2008-07-23, 00:26:05,VALID,1009.81,VALID,0,VALID,96.5115,VALID,0,VALID,21.8824,VALID,11,VALID,0,
2008-07-23, 00:27:05,VALID,1009.8,VALID,0,VALID,96.5192,VALID,0,VALID,21.8824,VALID,11,VALID,0,
2008-07-23, 00:28:05,VALID,1009.78,VALID,0,VALID,96.5115,VALID,0,VALID,21.884,VALID,11,VALID,0,
2008-07-23, 00:29:05,VALID,1009.79,VALID,0,VALID,96.4963,VALID,0,VALID,21.8629,VALID,11,VALID,0,
2008-07-23, 00:30:05,VALID,1009.76,VALID,0,VALID,96.5115,VALID,0,VALID,21.884,VALID,11,VALID,0,
2008-07-23, 00:31:05,VALID,1009.77,VALID,0,VALID,96.5039,VALID,0,VALID,21.8824,VALID,11,VALID,0,
2008-07-23, 00:32:05,VALID,1009.77,VALID,0,VALID,96.5115,VALID,0,VALID,21.8434,VALID,11,VALID,0,
2008-07-23, 00:33:05,VALID,1009.76,VALID,0,VALID,96.5192,VALID,0,VALID,21.9035,VALID,11,VALID,0,
2008-07-23, 00:34:05,VALID,1009.7,VALID,0,VALID,96.5039,VALID,0,VALID,21.8824,VALID,11,VALID,0,
2008-07-23, 00:35:05,VALID,1009.69,VALID,0,VALID,96.5192,VALID,0,VALID,21.8824,VALID,11,VALID,0,
2008-07-23, 00:36:05,VALID,1009.67,VALID,0,VALID,96.5268,VALID,0,VALID,21.8824,VALID,11,VALID,0,
2008-07-23, 00:37:05,VALID,1009.62,VALID,0,VALID,96.4887,VALID,0,VALID,21.9035,VALID,11,VALID,0.00585938,
2008-07-23, 00:38:05,VALID,1009.61,VALID,0,VALID,96.5268,VALID,0,VALID,21.9213,VALID,11,VALID,0.240234,
2008-07-23, 00:39:05,VALID,1009.6,VALID,0,VALID,96.5115,VALID,0,VALID,21.9213,VALID,11,VALID,0.211719,
2008-07-23, 00:40:05,VALID,1009.59,VALID,0,VALID,96.4887,VALID,0,VALID,21.9408,VALID,11,VALID,0.196875,
2008-07-23, 00:41:05,VALID,1009.54,VALID,0,VALID,96.5115,VALID,0,VALID,22.0009,VALID,11,VALID,0.145703,
2008-07-23, 00:42:05,VALID,1009.52,VALID,0,VALID,96.5115,VALID,0,VALID,21.9408,VALID,11,VALID,0.168359,
2008-07-23, 00:43:05,VALID,1009.52,VALID,0,VALID,96.4963,VALID,0,VALID,21.9213,VALID,11,VALID,0,
2008-07-23, 00:44:05,VALID,1009.55,VALID,0,VALID,96.5115,VALID,0,VALID,21.9603,VALID,11,VALID,0,
2008-07-23, 00:45:05,VALID,1009.54,VALID,0,VALID,96.4887,VALID,0,VALID,21.9619,VALID,11,VALID,0,
2008-07-23, 00:46:05,VALID,1009.55,VALID,0,VALID,96.5268,VALID,0,VALID,21.9619,VALID,11,VALID,0,
2008-07-23, 00:47:05,VALID,1009.52,VALID,0,VALID,96.5039,VALID,0,VALID,21.9408,VALID,11,VALID,0,
2008-07-23, 00:48:05,VALID,1009.55,VALID,0,VALID,96.4963,VALID,0,VALID,21.9619,VALID,11,VALID,0,
2008-07-23, 00:49:05,VALID,1009.53,VALID,0,VALID,96.4963,VALID,0,VALID,21.9603,VALID,11,VALID,0.00429688,
2008-07-23, 00:50:05,VALID,1009.54,VALID,0,VALID,96.5192,VALID,0,VALID,21.9603,VALID,11,VALID,0,
2008-07-23, 00:51:05,VALID,1009.51,VALID,0,VALID,96.5039,VALID,0,VALID,22.0009,VALID,11,VALID,0,
2008-07-23, 00:52:05,VALID,1009.51,VALID,0,VALID,96.5039,VALID,0,VALID,21.9797,VALID,11,VALID,0,
2008-07-23, 00:53:05,VALID,1009.51,VALID,0,VALID,96.5268,VALID,0,VALID,21.9603,VALID,11,VALID,0,
2008-07-23, 00:54:05,VALID,1009.49,VALID,0,VALID,96.5039,VALID,0,VALID,21.9603,VALID,11,VALID,0,
2008-07-23, 00:55:05,VALID,1009.47,VALID,0,VALID,96.5115,VALID,0,VALID,21.9797,VALID,11,VALID,0,
2008-07-23, 00:56:05,VALID,1009.46,VALID,0,VALID,96.5115,VALID,0,VALID,21.9992,VALID,11,VALID,0,
2008-07-23, 00:57:05,VALID,1009.45,VALID,0,VALID,96.5115,VALID,0,VALID,21.9992,VALID,11,VALID,0,
2008-07-23, 00:58:05,VALID,1009.46,VALID,0,VALID,96.5268,VALID,0,VALID,22.0204,VALID,11,VALID,0,
2008-07-23, 00:59:05,VALID,1009.46,VALID,0,VALID,96.5115,VALID,0,VALID,22.0398,VALID,11,VALID,0,
2008-07-23, 01:00:05,VALID,1009.46,VALID,0,VALID,96.5039,VALID,0,VALID,22.0187,VALID,11,VALID,0,
2008-07-23, 01:01:05,VALID,1009.47,VALID,0,VALID,96.5039,VALID,0,VALID,21.9992,VALID,11,VALID,0,
2008-07-23, 01:02:05,VALID,1009.46,VALID,0,VALID,96.5115,VALID,0,VALID,21.9797,VALID,11,VALID,0,
2008-07-23, 01:03:05,VALID,1009.43,VALID,0,VALID,96.5039,VALID,0,VALID,21.9603,VALID,11,VALID,0,
2008-07-23, 01:04:05,VALID,1009.41,VALID,0,VALID,96.5039,VALID,0,VALID,21.9603,VALID,11,VALID,0,
2008-07-23, 01:05:05,VALID,1009.4,VALID,0,VALID,96.5115,VALID,0,VALID,21.9603,VALID,11,VALID,0,
2008-07-23, 01:06:05,VALID,1009.42,VALID,0,VALID,96.5115,VALID,0,VALID,21.9408,VALID,11,VALID,0.4375,
2008-07-23, 01:07:05,VALID,1009.4,VALID,0,VALID,96.4963,VALID,0,VALID,21.9408,VALID,11,VALID,0.269922,
2008-07-23, 01:08:05,VALID,1009.42,VALID,0,VALID,96.5268,VALID,0,VALID,21.9213,VALID,11,VALID,0.0640625,
2008-07-23, 01:09:05,VALID,1009.41,VALID,0,VALID,96.5268,VALID,0,VALID,21.9619,VALID,11,VALID,0,
2008-07-23, 01:10:05,VALID,1009.45,VALID,0,VALID,96.5115,VALID,0,VALID,21.9196,VALID,11,VALID,0,
2008-07-23, 01:11:05,VALID,1009.41,VALID,0,VALID,96.5039,VALID,0,VALID,21.9408,VALID,11,VALID,0,
2008-07-23, 01:12:05,VALID,1009.41,VALID,0,VALID,96.5039,VALID,0,VALID,21.9408,VALID,11,VALID,0,
2008-07-23, 01:13:05,VALID,1009.4,VALID,0,VALID,96.5268,VALID,0,VALID,21.9408,VALID,11,VALID,0,
2008-07-23, 01:14:05,VALID,1009.38,VALID,0,VALID,96.5192,VALID,0,VALID,21.9408,VALID,11,VALID,0,
2008-07-23, 01:15:05,VALID,1009.4,VALID,0,VALID,96.5268,VALID,0,VALID,21.9814,VALID,11,VALID,0,
2008-07-23, 01:16:05,VALID,1009.41,VALID,0,VALID,96.5039,VALID,0,VALID,21.9408,VALID,11,VALID,0,
2008-07-23, 01:17:05,VALID,1009.42,VALID,0,VALID,96.5115,VALID,0,VALID,21.9408,VALID,11,VALID,0,
2008-07-23, 01:18:05,VALID,1009.39,VALID,0,VALID,96.5192,VALID,0,VALID,21.9213,VALID,11,VALID,0,
2008-07-23, 01:19:05,VALID,1009.41,VALID,0,VALID,96.5039,VALID,0,VALID,21.9603,VALID,11,VALID,0,
2008-07-23, 01:20:05,VALID,1009.38,VALID,0,VALID,96.5115,VALID,0,VALID,21.9213,VALID,11,VALID,0,
2008-07-23, 01:21:05,VALID,1009.36,VALID,0,VALID,96.5115,VALID,0,VALID,21.9408,VALID,11,VALID,0,
2008-07-23, 01:22:05,VALID,1009.33,VALID,0,VALID,96.5115,VALID,0,VALID,21.9018,VALID,11,VALID,0,
2008-07-23, 01:23:05,VALID,1009.32,VALID,0,VALID,96.5192,VALID,0,VALID,21.8824,VALID,11,VALID,0,
2008-07-23, 01:24:05,VALID,1009.32,VALID,0,VALID,96.5115,VALID,0,VALID,21.8629,VALID,11,VALID,0,
2008-07-23, 01:25:05,VALID,1009.33,VALID,0,VALID,96.5192,VALID,0,VALID,21.9018,VALID,11,VALID,0.256641,
2008-07-23, 01:26:05,VALID,1009.31,VALID,0,VALID,96.5192,VALID,0,VALID,21.9408,VALID,11,VALID,0.2375,
2008-07-23, 01:27:05,VALID,1009.3,VALID,0,VALID,96.5344,VALID,0,VALID,21.9603,VALID,24,VALID,0.335547,
2008-07-23, 01:28:05,VALID,1009.32,VALID,0,VALID,96.5192,VALID,0,VALID,21.9814,VALID,47,VALID,0.448438,
2008-07-23, 01:29:05,VALID,1009.29,VALID,0,VALID,96.5268,VALID,0.105969,VALID,21.9797,VALID,72,VALID,0.549219,
2008-07-23, 01:30:05,VALID,1009.27,VALID,0,VALID,96.5268,VALID,0,VALID,21.9797,VALID,90,VALID,0.667969,
2008-07-23, 01:31:05,VALID,1009.27,VALID,0,VALID,96.542,VALID,0,VALID,21.9992,VALID,91,VALID,0.551172,
2008-07-23, 01:32:05,VALID,1009.26,VALID,0,VALID,96.5268,VALID,0,VALID,22.0204,VALID,91,VALID,0.608594,
2008-07-23, 01:33:05,VALID,1009.22,VALID,0,VALID,96.5268,VALID,0,VALID,22.0187,VALID,86,VALID,0.426172,
2008-07-23, 01:34:05,VALID,1009.19,VALID,0,VALID,96.5192,VALID,0,VALID,22.0187,VALID,72,VALID,0.288672,
2008-07-23, 01:35:05,VALID,1009.24,VALID,0,VALID,96.5268,VALID,0,VALID,21.9992,VALID,72,VALID,0.253125,
2008-07-23, 01:36:05,VALID,1009.21,VALID,0,VALID,96.5268,VALID,0,VALID,22.0187,VALID,72,VALID,0,
2008-07-23, 01:37:05,VALID,1009.22,VALID,0,VALID,96.5268,VALID,0,VALID,22.0593,VALID,72,VALID,0,
2008-07-23, 01:38:05,VALID,1009.22,VALID,0,VALID,96.5192,VALID,0,VALID,22.0382,VALID,72,VALID,0,
2008-07-23, 01:39:05,VALID,1009.2,VALID,0,VALID,96.5115,VALID,0,VALID,22.0382,VALID,72,VALID,0,
2008-07-23, 01:40:05,VALID,1009.2,VALID,0,VALID,96.5115,VALID,0,VALID,22.0382,VALID,72,VALID,0,
2008-07-23, 01:41:05,VALID,1009.2,VALID,0,VALID,96.5115,VALID,0,VALID,22.0382,VALID,72,VALID,0,
2008-07-23, 01:42:05,VALID,1009.22,VALID,0,VALID,96.5115,VALID,0.105969,VALID,22.0593,VALID,72,VALID,0,
2008-07-23, 01:43:05,VALID,1009.21,VALID,0,VALID,96.542,VALID,0,VALID,22.0771,VALID,72,VALID,0,
2008-07-23, 01:44:05,VALID,1009.23,VALID,0,VALID,96.5192,VALID,0,VALID,22.0966,VALID,72,VALID,0,
2008-07-23, 01:45:05,VALID,1009.2,VALID,0,VALID,96.5192,VALID,0,VALID,22.1372,VALID,72,VALID,0,
2008-07-23, 01:46:05,VALID,1009.21,VALID,0,VALID,96.5115,VALID,0,VALID,22.1161,VALID,72,VALID,0,
2008-07-23, 01:47:05,VALID,1009.21,VALID,0,VALID,96.5344,VALID,0,VALID,22.1372,VALID,72,VALID,0,
2008-07-23, 01:48:05,VALID,1009.25,VALID,0,VALID,96.5115,VALID,0,VALID,22.1372,VALID,72,VALID,0,
2008-07-23, 01:49:05,VALID,1009.22,VALID,0,VALID,96.4963,VALID,0,VALID,22.0966,VALID,72,VALID,0,
2008-07-23, 01:50:05,VALID,1009.21,VALID,0,VALID,96.5039,VALID,0,VALID,22.0771,VALID,72,VALID,0,
2008-07-23, 01:51:05,VALID,1009.21,VALID,0,VALID,96.5039,VALID,0,VALID,22.0966,VALID,72,VALID,0,
2008-07-23, 01:52:05,VALID,1009.18,VALID,0,VALID,96.5039,VALID,0,VALID,22.1177,VALID,72,VALID,0,
2008-07-23, 01:53:05,VALID,1009.2,VALID,0,VALID,96.5039,VALID,0,VALID,22.1372,VALID,72,VALID,0,
2008-07-23, 01:54:05,VALID,1009.18,VALID,0,VALID,96.5115,VALID,0,VALID,22.1161,VALID,72,VALID,0,
2008-07-23, 01:55:05,VALID,1009.16,VALID,0,VALID,96.5115,VALID,0,VALID,22.0966,VALID,72,VALID,0,
2008-07-23, 01:56:05,VALID,1009.16,VALID,0,VALID,96.5039,VALID,0,VALID,22.1161,VALID,72,VALID,0.05,
2008-07-23, 01:57:05,VALID,1009.15,VALID,0,VALID,96.5192,VALID,0,VALID,22.1372,VALID,72,VALID,0.394141,
2008-07-23, 01:58:05,VALID,1009.15,VALID,0,VALID,96.5115,VALID,0,VALID,22.1355,VALID,72,VALID,0.448047,
2008-07-23, 01:59:05,VALID,1009.14,VALID,0,VALID,96.5115,VALID,0,VALID,22.155,VALID,72,VALID,0.323828,
2008-07-23, 02:00:05,VALID,1009.12,VALID,0,VALID,96.5039,VALID,0,VALID,22.1957,VALID,128,VALID,0.586719,
2008-07-23, 02:01:05,VALID,1009.09,VALID,0,VALID,96.5039,VALID,0,VALID,22.2151,VALID,135,VALID,0.696484,
2008-07-23, 02:02:05,VALID,1009.09,VALID,0,VALID,96.4963,VALID,0,VALID,22.194,VALID,135,VALID,0.536328,
2008-07-23, 02:03:05,VALID,1009.06,VALID,0,VALID,96.4963,VALID,0,VALID,22.194,VALID,134,VALID,0.401172,
2008-07-23, 02:04:05,VALID,1009.04,VALID,0,VALID,96.4963,VALID,0,VALID,22.2151,VALID,129,VALID,0.489062,
2008-07-23, 02:05:05,VALID,1008.98,VALID,0,VALID,96.4887,VALID,0,VALID,22.2346,VALID,129,VALID,0.745313,
2008-07-23, 02:06:05,VALID,1008.95,VALID,0,VALID,96.4963,VALID,0,VALID,22.2151,VALID,129,VALID,0.673828,
2008-07-23, 02:07:05,VALID,1008.93,VALID,0,VALID,96.5039,VALID,0,VALID,22.2134,VALID,128,VALID,0.39375,
2008-07-23, 02:08:05,VALID,1008.91,VALID,0,VALID,96.5192,VALID,0,VALID,22.194,VALID,128,VALID,0.505469,
2008-07-23, 02:09:05,VALID,1008.88,VALID,0,VALID,96.5039,VALID,0,VALID,22.2134,VALID,128,VALID,0.291797,
2008-07-23, 02:10:05,VALID,1008.89,VALID,0,VALID,96.4963,VALID,0,VALID,22.2329,VALID,128,VALID,0.198828,
2008-07-23, 02:11:05,VALID,1008.91,VALID,0,VALID,96.4963,VALID,0,VALID,22.2541,VALID,111,VALID,0.560938,
2008-07-23, 02:12:05,VALID,1008.9,VALID,0,VALID,96.481,VALID,0,VALID,22.2134,VALID,108,VALID,0.435937,
2008-07-23, 02:13:05,VALID,1008.92,VALID,0,VALID,96.4658,VALID,0,VALID,22.194,VALID,108,VALID,0.433203,
2008-07-23, 02:14:05,VALID,1008.91,VALID,0,VALID,96.4887,VALID,0,VALID,22.194,VALID,108,VALID,0.349609,
2008-07-23, 02:15:05,VALID,1008.93,VALID,0,VALID,96.4734,VALID,0,VALID,22.1957,VALID,108,VALID,0.214453,
2008-07-23, 02:16:05,VALID,1008.92,VALID,0,VALID,96.481,VALID,0,VALID,22.1745,VALID,108,VALID,0.166406,
2008-07-23, 02:17:05,VALID,1008.94,VALID,0,VALID,96.4887,VALID,0,VALID,22.1161,VALID,83,VALID,0.380078,
2008-07-23, 02:18:05,VALID,1008.91,VALID,0,VALID,96.4887,VALID,0,VALID,22.1161,VALID,77,VALID,0.348437,
2008-07-23, 02:19:05,VALID,1008.95,VALID,0,VALID,96.4963,VALID,0,VALID,22.0966,VALID,49,VALID,0.501953,
2008-07-23, 02:20:05,VALID,1008.94,VALID,0,VALID,96.4963,VALID,0,VALID,22.0576,VALID,52,VALID,0.416797,
2008-07-23, 02:21:04,VALID,1008.92,VALID,0,VALID,96.4963,VALID,0,VALID,22.0576,VALID,73,VALID,0.479297,
2008-07-23, 02:22:04,VALID,1008.93,VALID,0,VALID,96.5039,VALID,0,VALID,22.0382,VALID,85,VALID,0.485156,
2008-07-23, 02:23:04,VALID,1008.91,VALID,0,VALID,96.5344,VALID,0,VALID,22.0382,VALID,85,VALID,0.337891,
2008-07-23, 02:24:04,VALID,1008.9,VALID,0,VALID,96.5115,VALID,0,VALID,22.0187,VALID,85,VALID,0.347266,
2008-07-23, 02:25:04,VALID,1008.9,VALID,0,VALID,96.4963,VALID,0,VALID,22.0382,VALID,85,VALID,0.306641,
2008-07-23, 02:26:04,VALID,1008.86,VALID,0,VALID,96.5268,VALID,0,VALID,22.0187,VALID,85,VALID,0.276953,
2008-07-23, 02:27:04,VALID,1008.83,VALID,0,VALID,96.5268,VALID,0,VALID,22.0382,VALID,85,VALID,0.215234,
2008-07-23, 02:28:04,VALID,1008.82,VALID,0,VALID,96.5115,VALID,0,VALID,22.0382,VALID,85,VALID,0.15,
2008-07-23, 02:29:04,VALID,1008.81,VALID,0,VALID,96.5039,VALID,0,VALID,22.0382,VALID,85,VALID,0,
2008-07-23, 02:30:04,VALID,1008.81,VALID,0,VALID,96.5115,VALID,0,VALID,22.0382,VALID,85,VALID,0.138672,
2008-07-23, 02:31:04,VALID,1008.79,VALID,0,VALID,96.5192,VALID,0,VALID,22.0576,VALID,85,VALID,0.146875,
2008-07-23, 02:32:04,VALID,1008.83,VALID,0,VALID,96.4963,VALID,0,VALID,22.0576,VALID,88,VALID,0.295703,
2008-07-23, 02:33:04,VALID,1008.8,VALID,0,VALID,96.5344,VALID,0,VALID,22.0382,VALID,88,VALID,0.333203,
2008-07-23, 02:34:04,VALID,1008.8,VALID,0,VALID,96.5192,VALID,0,VALID,22.0382,VALID,88,VALID,0.144922,
2008-07-23, 02:35:04,VALID,1008.79,VALID,0,VALID,96.5268,VALID,0.105969,VALID,22.0382,VALID,88,VALID,0.139062,
2008-07-23, 02:36:04,VALID,1008.78,VALID,0,VALID,96.5268,VALID,0,VALID,22.0382,VALID,88,VALID,0.00351562,
2008-07-23, 02:37:04,VALID,1008.8,VALID,0,VALID,96.4963,VALID,0,VALID,22.0187,VALID,88,VALID,0,
2008-07-23, 02:38:04,VALID,1008.79,VALID,0,VALID,96.5115,VALID,0,VALID,22.0382,VALID,88,VALID,0.183594,
2008-07-23, 02:39:04,VALID,1008.8,VALID,0,VALID,96.542,VALID,0,VALID,22.0187,VALID,88,VALID,0.2125,
2008-07-23, 02:40:04,VALID,1008.77,VALID,0,VALID,96.5039,VALID,0,VALID,22.0187,VALID,88,VALID,0.224609,
2008-07-23, 02:41:04,VALID,1008.77,VALID,0,VALID,96.5268,VALID,0,VALID,22.0382,VALID,88,VALID,0.380078,
2008-07-23, 02:42:04,VALID,1008.77,VALID,0,VALID,96.5115,VALID,0,VALID,22.0187,VALID,88,VALID,0.239844,
2008-07-23, 02:43:04,VALID,1008.74,VALID,0,VALID,96.5039,VALID,0,VALID,22.0187,VALID,88,VALID,0.319531,
2008-07-23, 02:44:04,VALID,1008.75,VALID,0,VALID,96.5268,VALID,0,VALID,22.0187,VALID,88,VALID,0.360156,
2008-07-23, 02:45:04,VALID,1008.76,VALID,0,VALID,96.5192,VALID,0,VALID,21.9992,VALID,97,VALID,0.546484,
2008-07-23, 02:46:04,VALID,1008.75,VALID,0,VALID,96.5192,VALID,0,VALID,21.9992,VALID,93,VALID,0.129688,
2008-07-23, 02:47:04,VALID,1008.76,VALID,0,VALID,96.5192,VALID,0,VALID,22.0009,VALID,93,VALID,0.301172,
2008-07-23, 02:48:04,VALID,1008.75,VALID,0,VALID,96.5344,VALID,0,VALID,21.9992,VALID,93,VALID,0.260938,
2008-07-23, 02:49:04,VALID,1008.73,VALID,0,VALID,96.5344,VALID,0.105969,VALID,21.9992,VALID,93,VALID,0.0234375,
2008-07-23, 02:50:04,VALID,1008.75,VALID,0,VALID,96.5115,VALID,0,VALID,22.0009,VALID,93,VALID,0.0417969,
2008-07-23, 02:51:04,VALID,1008.71,VALID,0,VALID,96.5192,VALID,0,VALID,21.9797,VALID,93,VALID,0,
2008-07-23, 02:52:04,VALID,1008.73,VALID,0,VALID,96.5192,VALID,0,VALID,21.9603,VALID,93,VALID,0.141406,
2008-07-23, 02:53:04,VALID,1008.71,VALID,0,VALID,96.5192,VALID,0,VALID,21.9797,VALID,93,VALID,0.192969,
2008-07-23, 02:54:04,VALID,1008.67,VALID,0,VALID,96.5268,VALID,0,VALID,21.9797,VALID,93,VALID,0.411719,
2008-07-23, 02:55:04,VALID,1008.67,VALID,0,VALID,96.5192,VALID,0,VALID,21.9992,VALID,93,VALID,0.387891,
2008-07-23, 02:56:04,VALID,1008.66,VALID,0,VALID,96.5192,VALID,0,VALID,21.9797,VALID,93,VALID,0.267578,
2008-07-23, 02:57:04,VALID,1008.67,VALID,0,VALID,96.5268,VALID,0,VALID,21.9586,VALID,93,VALID,0.189453,
2008-07-23, 02:58:04,VALID,1008.66,VALID,0,VALID,96.5192,VALID,0,VALID,21.9992,VALID,93,VALID,0.212891,
2008-07-23, 02:59:04,VALID,1008.67,VALID,0,VALID,96.5192,VALID,0.105969,VALID,21.9797,VALID,81,VALID,0.408984,
2008-07-23, 03:00:04,VALID,1008.65,VALID,0,VALID,96.5192,VALID,0,VALID,21.9797,VALID,76,VALID,0.407422,
2008-07-23, 03:01:04,VALID,1008.67,VALID,0,VALID,96.5115,VALID,0,VALID,21.9408,VALID,73,VALID,0.430469,
2008-07-23, 03:02:04,VALID,1008.66,VALID,0,VALID,96.5344,VALID,0,VALID,21.9408,VALID,59,VALID,0.556641,
2008-07-23, 03:03:04,VALID,1008.65,VALID,0,VALID,96.5192,VALID,0,VALID,21.9408,VALID,62,VALID,0.339844,
2008-07-23, 03:04:04,VALID,1008.66,VALID,0,VALID,96.5192,VALID,0,VALID,21.9213,VALID,55,VALID,0.780078,
2008-07-23, 03:05:04,VALID,1008.61,VALID,0,VALID,96.5344,VALID,0,VALID,21.9213,VALID,44,VALID,0.383594,
2008-07-23, 03:06:04,VALID,1008.63,VALID,0,VALID,96.5115,VALID,0,VALID,21.9018,VALID,35,VALID,0.591797,
2008-07-23, 03:07:04,VALID,1008.63,VALID,0,VALID,96.5192,VALID,0,VALID,21.8824,VALID,35,VALID,0.441406,
2008-07-23, 03:08:04,VALID,1008.64,VALID,0,VALID,96.5115,VALID,0,VALID,21.8434,VALID,33,VALID,0.301953,
2008-07-23, 03:09:04,VALID,1008.65,VALID,0,VALID,96.5039,VALID,0,VALID,21.8434,VALID,10,VALID,0.353906,
2008-07-23, 03:10:04,VALID,1008.67,VALID,0,VALID,96.5268,VALID,0,VALID,21.8239,VALID,10,VALID,0.339844,
2008-07-23, 03:11:04,VALID,1008.69,VALID,0,VALID,96.5344,VALID,0,VALID,21.8434,VALID,10,VALID,0.228125,
2008-07-23, 03:12:04,VALID,1008.69,VALID,0,VALID,96.5344,VALID,0,VALID,21.8629,VALID,10,VALID,0.282031,
2008-07-23, 03:13:04,VALID,1008.7,VALID,0,VALID,96.5344,VALID,0,VALID,21.8239,VALID,10,VALID,0.171875,
2008-07-23, 03:14:04,VALID,1008.69,VALID,0,VALID,96.5268,VALID,0,VALID,21.785,VALID,10,VALID,0.210938,
2008-07-23, 03:15:04,VALID,1008.7,VALID,0,VALID,96.5344,VALID,0,VALID,21.7655,VALID,10,VALID,0.003125,
2008-07-23, 03:16:04,VALID,1008.7,VALID,0,VALID,96.5344,VALID,0,VALID,21.746,VALID,10,VALID,0.292188,
2008-07-23, 03:17:04,VALID,1008.72,VALID,0,VALID,96.542,VALID,0,VALID,21.746,VALID,10,VALID,0.346875,
2008-07-23, 03:18:04,VALID,1008.73,VALID,0,VALID,96.5344,VALID,0,VALID,21.7477,VALID,10,VALID,0.248437,
2008-07-23, 03:19:04,VALID,1008.77,VALID,0,VALID,96.5268,VALID,0,VALID,21.7655,VALID,10,VALID,0.228906,
2008-07-23, 03:20:04,VALID,1008.76,VALID,0,VALID,96.542,VALID,0,VALID,21.7071,VALID,10,VALID,0.0597656,
2008-07-23, 03:21:04,VALID,1008.77,VALID,0,VALID,96.5344,VALID,0,VALID,21.6876,VALID,10,VALID,0.00351562,
2008-07-23, 03:22:04,VALID,1008.76,VALID,0,VALID,96.5344,VALID,0,VALID,21.6876,VALID,10,VALID,0,
2008-07-23, 03:23:04,VALID,1008.74,VALID,0,VALID,96.5573,VALID,0,VALID,21.647,VALID,10,VALID,0.337109,
2008-07-23, 03:24:04,VALID,1008.76,VALID,0,VALID,96.5725,VALID,0,VALID,21.6487,VALID,10,VALID,0.230859,
2008-07-23, 03:25:04,VALID,1008.77,VALID,0,VALID,96.5497,VALID,0,VALID,21.6487,VALID,41,VALID,0.283984,
2008-07-23, 03:26:04,VALID,1008.79,VALID,0,VALID,96.5573,VALID,0,VALID,21.6681,VALID,41,VALID,0.190234,
2008-07-23, 03:27:04,VALID,1008.79,VALID,0,VALID,96.542,VALID,0,VALID,21.6698,VALID,49,VALID,0.186719,
2008-07-23, 03:28:04,VALID,1008.8,VALID,0,VALID,96.5649,VALID,0,VALID,21.6698,VALID,49,VALID,0.00429688,
2008-07-23, 03:29:04,VALID,1008.79,VALID,0,VALID,96.5649,VALID,0,VALID,21.6487,VALID,74,VALID,0.396484,
2008-07-23, 03:30:04,VALID,1008.8,VALID,0,VALID,96.5802,VALID,0,VALID,21.6893,VALID,74,VALID,0.496094,
2008-07-23, 03:31:04,VALID,1008.8,VALID,0,VALID,96.5649,VALID,0,VALID,21.6681,VALID,74,VALID,0.31875,
2008-07-23, 03:32:04,VALID,1008.8,VALID,0,VALID,96.5725,VALID,0,VALID,21.6698,VALID,74,VALID,0.180859,
2008-07-23, 03:33:04,VALID,1008.79,VALID,0,VALID,96.5573,VALID,0,VALID,21.7087,VALID,74,VALID,0.335547,
2008-07-23, 03:34:04,VALID,1008.81,VALID,0,VALID,96.5497,VALID,0,VALID,21.6893,VALID,74,VALID,0.317969,
2008-07-23, 03:35:04,VALID,1008.78,VALID,0,VALID,96.5725,VALID,0,VALID,21.6681,VALID,74,VALID,0.265234,
2008-07-23, 03:36:04,VALID,1008.79,VALID,0,VALID,96.5725,VALID,0,VALID,21.6487,VALID,74,VALID,0.322656,
2008-07-23, 03:37:04,VALID,1008.82,VALID,0,VALID,96.5649,VALID,0,VALID,21.6681,VALID,106,VALID,0.345703,
2008-07-23, 03:38:04,VALID,1008.79,VALID,0,VALID,96.5573,VALID,0,VALID,21.6681,VALID,103,VALID,0.347266,
2008-07-23, 03:39:04,VALID,1008.8,VALID,0,VALID,96.5497,VALID,0,VALID,21.6681,VALID,84,VALID,0.327734,
2008-07-23, 03:40:04,VALID,1008.77,VALID,0,VALID,96.5344,VALID,0,VALID,21.6681,VALID,84,VALID,0.117969,
2008-07-23, 03:41:04,VALID,1008.74,VALID,0,VALID,96.542,VALID,0,VALID,21.6681,VALID,83,VALID,0.281641,
2008-07-23, 03:42:04,VALID,1008.76,VALID,0,VALID,96.5573,VALID,0,VALID,21.6893,VALID,83,VALID,0.382031,
2008-07-23, 03:43:04,VALID,1008.76,VALID,0,VALID,96.5573,VALID,0,VALID,21.6681,VALID,68,VALID,0.25,
2008-07-23, 03:44:04,VALID,1008.75,VALID,0,VALID,96.5497,VALID,0,VALID,21.6487,VALID,68,VALID,0.0140625,
2008-07-23, 03:45:04,VALID,1008.75,VALID,0,VALID,96.5497,VALID,0,VALID,21.6681,VALID,68,VALID,0.00273437,
2008-07-23, 03:46:04,VALID,1008.76,VALID,0,VALID,96.5573,VALID,0,VALID,21.6292,VALID,67,VALID,0.296875,
2008-07-23, 03:47:04,VALID,1008.74,VALID,0,VALID,96.5497,VALID,0,VALID,21.6681,VALID,111,VALID,0.235156,
2008-07-23, 03:48:04,VALID,1008.72,VALID,0,VALID,96.5573,VALID,0,VALID,21.6487,VALID,93,VALID,0.416406,
2008-07-23, 03:49:04,VALID,1008.72,VALID,0,VALID,96.5649,VALID,0,VALID,21.6681,VALID,62,VALID,0.583203,
2008-07-23, 03:50:04,VALID,1008.74,VALID,0,VALID,96.542,VALID,0,VALID,21.6487,VALID,62,VALID,0.101563,
2008-07-23, 03:51:04,VALID,1008.77,VALID,0,VALID,96.5573,VALID,0,VALID,21.6681,VALID,50,VALID,0.327734,